Location: Beverley
(50.2667°N, 107.9667°W)
Time: 08:09:21
(UTC+00:00)

EO-79 - Pass Details

Date: 07 July 2022
Orbit: 588 x 603 km, 98.0° (Epoch: 17 August)

Event Time Altitude Azimuth Distance (km) Brightness Sun altitude
Rises 08:22:55 0° 21° (NNE) 2,863 ? -15.7°
Reaches altitude 10° 08:25:16 10° 31° (NNE) 1,957 ? -15.6°
Maximum altitude 08:29:08 34° 96° (E) 1,012 ? -15.4°
Enters shadow 08:31:52 17° 153° (SSE) 1,551 ? -15.3°
